TimeEDT,TemperatureF,Dew PointF,Humidity,Sea Level PressureIn,VisibilityMPH,Wind Direction,Wind SpeedMPH,Gust SpeedMPH,PrecipitationIn,Events,Conditions,WindDirDegrees,DateUTC
12:15 AM,58.3,57.9,99,30.15,3.0,Calm,Calm,-,N/A,,Clear,0,2013-09-16 04:15:00
12:35 AM,58.3,58.1,99,30.15,4.0,Calm,Calm,-,N/A,,Clear,0,2013-09-16 04:35:00
12:55 AM,57.2,57.2,100,30.15,4.0,Calm,Calm,-,N/A,,Clear,0,2013-09-16 04:55:00
1:15 AM,57.0,57.0,100,30.15,3.0,Calm,Calm,-,N/A,,Clear,0,2013-09-16 05:15:00
1:35 AM,56.7,56.7,100,30.15,4.0,Calm,Calm,-,N/A,,Clear,0,2013-09-16 05:35:00
1:55 AM,56.7,56.7,100,30.15,4.0,Calm,Calm,-,N/A,,Clear,0,2013-09-16 05:55:00
2:15 AM,56.3,56.3,100,30.15,4.0,Calm,Calm,-,N/A,,Clear,0,2013-09-16 06:15:00
2:35 AM,56.3,56.3,100,30.15,4.0,Calm,Calm,-,N/A,,Scattered Clouds,0,2013-09-16 06:35:00
2:55 AM,56.5,56.5,100,30.14,4.0,Calm,Calm,-,N/A,,Clear,0,2013-09-16 06:55:00
3:15 AM,55.6,55.6,100,30.14,2.5,Calm,Calm,-,N/A,,Clear,0,2013-09-16 07:15:00
3:35 AM,55.9,55.9,100,30.14,3.0,Calm,Calm,-,N/A,,Clear,0,2013-09-16 07:35:00
3:55 AM,55.4,55.4,100,30.14,4.0,Calm,Calm,-,N/A,,Clear,0,2013-09-16 07:55:00
4:15 AM,55.4,55.4,100,30.14,4.0,Calm,Calm,-,N/A,,Scattered Clouds,0,2013-09-16 08:15:00
4:35 AM,56.5,56.5,100,30.14,2.5,Calm,Calm,-,N/A,,Scattered Clouds,0,2013-09-16 08:35:00
4:55 AM,56.5,56.5,100,30.14,3.0,Calm,Calm,-,N/A,,Clear,0,2013-09-16 08:55:00
5:15 AM,56.1,56.1,100,30.14,3.0,Calm,Calm,-,N/A,,Clear,0,2013-09-16 09:15:00
5:35 AM,54.9,54.9,100,30.14,4.0,Calm,Calm,-,N/A,,Clear,0,2013-09-16 09:35:00
5:55 AM,55.6,55.6,100,30.13,4.0,Calm,Calm,-,N/A,,Clear,0,2013-09-16 09:55:00
6:15 AM,54.7,54.7,100,30.13,4.0,Calm,Calm,-,N/A,,Clear,0,2013-09-16 10:15:00
6:35 AM,55.0,55.0,100,30.13,2.5,Calm,Calm,-,N/A,,Clear,0,2013-09-16 10:35:00
6:55 AM,54.9,54.9,100,30.13,4.0,Calm,Calm,-,N/A,,Clear,0,2013-09-16 10:55:00
7:15 AM,56.8,56.8,100,30.14,4.0,Calm,Calm,-,N/A,,Clear,0,2013-09-16 11:15:00
7:35 AM,57.4,57.4,100,30.14,3.0,SSW,3.5,-,N/A,,Clear,210,2013-09-16 11:35:00
7:55 AM,57.4,57.4,100,30.14,2.5,Calm,Calm,-,N/A,,Clear,0,2013-09-16 11:55:00
8:15 AM,58.1,58.1,100,30.14,4.0,Calm,Calm,-,N/A,,Clear,0,2013-09-16 12:15:00
8:35 AM,58.8,58.8,100,30.14,4.0,Calm,Calm,-,N/A,,Clear,0,2013-09-16 12:35:00
8:55 AM,61.2,61.2,100,30.14,5.0,Calm,Calm,-,N/A,,Clear,0,2013-09-16 12:55:00
9:15 AM,63.9,63.1,97,30.14,7.0,South,3.5,-,N/A,,Clear,190,2013-09-16 13:15:00
9:35 AM,66.2,63.1,90,30.14,10.0,Calm,Calm,-,N/A,,Clear,0,2013-09-16 13:35:00
9:55 AM,68.5,63.5,84,30.15,10.0,SSW,4.6,-,N/A,,Clear,200,2013-09-16 13:55:00
10:15 AM,70.7,64.6,81,30.15,10.0,South,3.5,-,N/A,,Clear,190,2013-09-16 14:15:00
10:35 AM,73.0,64.9,76,30.15,10.0,Calm,Calm,-,N/A,,Clear,0,2013-09-16 14:35:00
10:55 AM,74.7,65.3,73,30.15,10.0,South,4.6,-,N/A,,Clear,170,2013-09-16 14:55:00
11:15 AM,76.5,64.6,67,30.14,10.0,SSE,3.5,-,N/A,,Clear,160,2013-09-16 15:15:00
11:35 AM,78.3,64.4,62,30.14,10.0,South,4.6,-,N/A,,Clear,190,2013-09-16 15:35:00
11:55 AM,79.7,64.4,59,30.14,10.0,WSW,4.6,-,N/A,,Scattered Clouds,240,2013-09-16 15:55:00
12:15 PM,79.9,61.9,54,30.14,10.0,NW,3.5,-,N/A,,Scattered Clouds,320,2013-09-16 16:15:00
12:35 PM,80.6,61.3,52,30.14,10.0,NNW,3.5,-,N/A,,Scattered Clouds,340,2013-09-16 16:35:00
12:55 PM,80.4,61.3,52,30.13,10.0,Calm,Calm,-,N/A,,Scattered Clouds,0,2013-09-16 16:55:00
1:15 PM,81.7,62.1,51,30.13,10.0,West,4.6,-,N/A,,Scattered Clouds,280,2013-09-16 17:15:00
1:35 PM,80.4,62.2,54,30.13,10.0,WNW,4.6,-,N/A,,Scattered Clouds,300,2013-09-16 17:35:00
1:55 PM,79.7,63.5,58,30.12,10.0,North,3.5,-,N/A,,Mostly Cloudy,360,2013-09-16 17:55:00
2:15 PM,78.1,63.7,61,30.12,10.0,North,3.5,-,N/A,,Mostly Cloudy,350,2013-09-16 18:15:00
2:35 PM,78.4,64.4,62,30.12,10.0,North,3.5,-,N/A,,Mostly Cloudy,360,2013-09-16 18:35:00
2:55 PM,77.9,64.2,63,30.12,10.0,North,3.5,-,N/A,,Overcast,10,2013-09-16 18:55:00
3:15 PM,77.7,63.1,61,30.11,10.0,North,4.6,-,N/A,,Mostly Cloudy,10,2013-09-16 19:15:00
3:35 PM,78.4,63.9,61,30.10,10.0,North,3.5,-,N/A,,Mostly Cloudy,360,2013-09-16 19:35:00
3:55 PM,80.1,63.7,57,30.10,10.0,North,5.8,-,N/A,,Mostly Cloudy,360,2013-09-16 19:55:00
4:15 PM,77.2,63.5,63,30.10,10.0,NNE,3.5,-,N/A,,Mostly Cloudy,20,2013-09-16 20:15:00
4:35 PM,77.2,64.2,64,30.10,10.0,North,3.5,-,N/A,,Mostly Cloudy,10,2013-09-16 20:35:00
4:55 PM,77.0,63.5,63,30.11,10.0,Calm,Calm,-,N/A,,Mostly Cloudy,0,2013-09-16 20:55:00
5:15 PM,76.1,62.2,62,30.11,10.0,NNE,4.6,-,N/A,,Mostly Cloudy,20,2013-09-16 21:15:00
5:35 PM,75.4,63.3,66,30.11,10.0,North,3.5,-,N/A,,Overcast,10,2013-09-16 21:35:00
5:55 PM,74.3,63.7,69,30.11,10.0,Calm,Calm,-,N/A,,Overcast,0,2013-09-16 21:55:00
6:15 PM,73.8,63.9,71,30.12,10.0,Calm,Calm,-,N/A,,Overcast,0,2013-09-16 22:15:00
6:35 PM,73.4,63.5,71,30.12,10.0,Calm,Calm,-,N/A,,Overcast,0,2013-09-16 22:35:00
6:55 PM,73.2,63.0,70,30.13,10.0,Calm,Calm,-,N/A,,Overcast,0,2013-09-16 22:55:00
7:15 PM,72.5,62.8,71,30.14,10.0,North,3.5,-,N/A,,Overcast,10,2013-09-16 23:15:00
7:35 PM,71.6,63.5,76,30.14,10.0,Calm,Calm,-,N/A,,Overcast,0,2013-09-16 23:35:00
7:55 PM,71.2,63.1,75,30.15,10.0,NNE,3.5,-,N/A,,Overcast,20,2013-09-16 23:55:00
8:15 PM,71.1,63.0,75,30.16,10.0,Calm,Calm,-,N/A,,Overcast,0,2013-09-17 00:15:00
8:35 PM,70.3,63.3,78,30.17,10.0,NNE,3.5,-,N/A,,Overcast,30,2013-09-17 00:35:00
8:55 PM,70.9,61.7,73,30.18,10.0,NNE,3.5,-,N/A,,Overcast,20,2013-09-17 00:55:00
9:15 PM,70.3,61.2,73,30.19,10.0,NNE,4.6,-,N/A,,Overcast,30,2013-09-17 01:15:00
9:35 PM,69.8,60.1,71,30.20,10.0,North,4.6,-,N/A,,Overcast,10,2013-09-17 01:35:00
9:55 PM,69.3,58.5,68,30.21,10.0,NNE,5.8,-,N/A,,Overcast,30,2013-09-17 01:55:00
10:15 PM,68.0,57.6,69,30.22,10.0,NNE,5.8,-,N/A,,Mostly Cloudy,30,2013-09-17 02:15:00
10:35 PM,66.9,57.9,73,30.22,10.0,NNE,3.5,-,N/A,,Scattered Clouds,30,2013-09-17 02:35:00
10:55 PM,66.2,58.5,76,30.23,10.0,NNE,4.6,-,N/A,,Mostly Cloudy,30,2013-09-17 02:55:00
11:15 PM,65.3,59.0,80,30.24,10.0,NNE,3.5,-,N/A,,Overcast,20,2013-09-17 03:15:00
11:35 PM,65.1,58.8,80,30.24,10.0,NNE,3.5,-,N/A,,Mostly Cloudy,30,2013-09-17 03:35:00
11:55 PM,63.9,58.5,83,30.24,10.0,NNE,3.5,-,N/A,,Clear,20,2013-09-17 03:55:00